Weather Service Report


708 
ASUS41 KRLX 250810
RWRRLX
West Virginia Regional Weather Roundup
National Weather Service Charleston WV
Issued by National Weather Service Pittsburgh PA
400 AM EDT THU AUG 25 2016

Note: "fair" indicates few or no clouds below 12,000 feet with no
significant weather and/or obstructions to visibility.

WVZ003-250900-
Northern Panhandle of West Virginia
  
CITY           SKY/WX    TMP DP  RH WIND       PRES   REMARKS
WHEELING       LGT RAIN  76  68  76 S14G20    30.05F                  
$$

WVZ009-250900-
Northwest West Virginia
  
CITY           SKY/WX    TMP DP  RH WIND       PRES   REMARKS
PARKERSBURG    CLOUDY    76  69  79 S9        30.09F                  
$$

WVZ006-250900-
Western West Virginia
  
CITY           SKY/WX    TMP DP  RH WIND       PRES   REMARKS
HUNTINGTON     CLOUDY    75  71  87 S8        30.10F                  
$$

WVZ015-250900-
West Central West Virginia
  
CITY           SKY/WX    TMP DP  RH WIND       PRES   REMARKS
CHARLESTON     PTCLDY    73  68  84 CALM      30.12F                  
$$

WVZ031-250900-
North Central West Virginia
  
CITY           SKY/WX    TMP DP  RH WIND       PRES   REMARKS
CLARKSBURG     PTCLDY    71  66  84 S5        30.11F                  
MORGANTOWN     CLOUDY    74  66  76 S5        30.11F                  
$$

WVZ035-042-250900-
South Central West Virginia
  
CITY           SKY/WX    TMP DP  RH WIND       PRES   REMARKS
BECKLEY        CLOUDY    68  64  87 SW3       30.23F                  
BLUEFIELD      CLOUDY    67  62  84 W5        30.26F                  
$$

WVZ045-250900-
Greenbrier Valley of West Virginia
  
CITY           SKY/WX    TMP DP  RH WIND       PRES   REMARKS
LEWISBURG      PTCLDY    62  61  97 CALM      30.22S                  
$$

WVZ047-250900-
Northern Mountains of West Virginia
  
CITY           SKY/WX    TMP DP  RH WIND       PRES   REMARKS
ELKINS         PTCLDY    65  63  93 CALM      30.18F                  
$$

WVZ052-250900-
Eastern Panhandle of West Virginia
  
CITY           SKY/WX    TMP DP  RH WIND       PRES   REMARKS
MARTINSBURG    CLEAR     66  65  96 CALM      30.10F                  
PETERSBURG     CLOUDY    69  66  91 CALM      30.12S                  
$$
  

Return to Home page


Western Regional Climate Center, wrcc@dri.edu